Weather in Vlozhkino

Russia / Kostroma Oblast     57°37′05″N   41°35′09″E
temp.,
°C
wind,
m/s
gust,
m/s
humid.,
%
clouds,
%
prec.,
mm/h
press.,
hPa
HPBL,
m
24 june, thu
thu2400:00+22sw227522 0.0 102011
03:00+21wsw22785 0.0 102015
06:00+23wsw257853 0.0 1020131
09:00+27wsw2364100 0.0 1020394
12:00+31wsw345283 0.0 1019940
15:00+32w4648100 0.0 10181442
18:00+31wsw255929 0.0 1017378
21:00+25sw34695 0.0 101649
25 june, fri
fri2500:00+22wsw22723 0.1 101725
03:00+21w228515 0.1 101622
06:00+23ssw007979 0.0 101572
09:00+26wnw4567100 0.0 1016477
12:00+28w345773 0.0 1016785
15:00+29w3553100 0.0 10151072
18:00+29wnw236012 0.0 1013756
21:00+24ssw11754 0.0 101411
26 june, sat
sat2600:00+21ssw228624 1.0 101423
03:00+20ese118930 2.9 101312
06:00+21wsw35915 0.0 1013206
09:00+25wsw236870 0.0 1013482
12:00+28wsw336068 0.0 1013915
15:00+30wsw34520 0.0 10121529
18:00+29wnw36613 0.0 1011589
21:00+24w12780 0.0 101111
27 june, sun
sun2700:00+22sw22785 0.0 101211
03:00+21ssw23866 1.0 101247
06:00+22ssw23884 0.4 1012114
09:00+27sw34671 0.4 1013517
12:00+29wsw346127 1.1 10131101
15:00+31w35494 1.1 10121609
18:00+26s4672100 0.2 1011247
21:00+20ssw61291100 1.1 1013305
28 june, mon
mon2800:00+18w2494100 0.6 101283
03:00+18s22955 1.3 101215
06:00+20sw239051 0.0 1012136
09:00+25sw346886 0.0 1012497
12:00+29ssw345663 0.0 1012977
15:00+28w555965 0.6 10111071
18:00+25sw487359 0.3 1011562
21:00+22wnw227642 0.3 101023